Moose Lake, MN

8:33 PM CDT on March 29, 2017 (GMT -0500)
Moose Lake-Carlton County

Weather History for KMZH - January, 2013

Change the Weather History Date:

Sunday, January 27, 2013

  Actual Average Record
Temperature  
Mean Temperature 20 °F -  
Max Temperature 32 °F 18 °F 46 °F (2006)
Min Temperature 8 °F -5 °F -37 °F (1976)
Degree Days  
Heating Degree Days 45    
Moisture  
Dew Point 11 °F    
Average Humidity 61    
Maximum Humidity 80    
Minimum Humidity 40    
Precipitation  
Precipitation 0.03 in - - ()
Sea Level Pressure  
Sea Level Pressure 29.94 in    
Wind  
Wind Speed 1 mph (East)    
Max Wind Speed 6 mph    
Max Gust Speed -    
Visibility 8 miles    
Events Snow    
Averages and records for this station are not official NWS values.
T = Trace of Precipitation, MM = Missing Value Source: NWS Daily Summary

Daily Weather History Graph

Daily Weather History Graph

Search for Another Location

Airport or City:

Trip Planner

Search our weather history database for the weather conditions in past years. The results will help you decide how hot, cold, wet, or windy it might be!

Date:

Astronomy

Jan. 27, 2013 Rise Set
Actual Time 7:40 AM CST 5:08 PM CST
Civil Twilight 7:07 AM CST 5:41 PM CST
Nautical Twilight 6:30 AM CST 6:17 PM CST
Astronomical Twilight 5:55 AM CST 6:53 PM CST
Moon 6:09 PM CST (1/27) 7:28 AM CST (1/27)
Length of Visible Light 10h 33m
Length of Day
9h 28m
Full, 100% of the Moon is Illuminated
Jan 27
Full
Feb 3
Last Quarter
Feb 10
New
Feb 17
First Quarter
Feb 25
Full

Hourly Weather History & Observations

Time (CST) Temp. Windchill Dew Point Humidity Pressure Visibility Wind Dir Wind Speed Gust Speed Precip Events Conditions
12:11 AM 12.2 °F - 1.4 °F 62% 30.10 in 10.0 mi Calm Calm - N/A   Clear
12:31 AM 10.4 °F - 1.4 °F 67% 30.10 in 10.0 mi Calm Calm - N/A   Clear
12:52 AM 10.4 °F - -0.4 °F 62% 30.09 in 10.0 mi Calm Calm - N/A   Clear
1:11 AM 8.6 °F - -0.4 °F 67% 30.09 in 10.0 mi Calm Calm - N/A   Clear
1:31 AM 8.6 °F - -0.4 °F 67% 30.08 in 10.0 mi Calm Calm - N/A   Clear
1:52 AM 8.6 °F - -0.4 °F 67% 30.08 in 10.0 mi Calm Calm - N/A   Scattered Clouds
2:12 AM 8.6 °F - 1.4 °F 73% 30.08 in 10.0 mi Calm Calm - N/A   Scattered Clouds
2:32 AM 10.4 °F - 1.4 °F 67% 30.07 in 10.0 mi Calm Calm - N/A   Scattered Clouds
2:51 AM 10.4 °F - 1.4 °F 67% 30.06 in 10.0 mi Calm Calm - N/A   Clear
3:12 AM 8.6 °F - -0.4 °F 67% 30.05 in 10.0 mi Calm Calm - N/A   Clear
3:31 AM 12.2 °F 6.1 °F 1.4 °F 62% 30.05 in 10.0 mi NE 3.5 mph - N/A   Clear
3:51 AM 12.2 °F - 1.4 °F 62% 30.04 in 10.0 mi Calm Calm - N/A   Clear
4:11 AM 10.4 °F 4.0 °F 1.4 °F 67% 30.03 in 10.0 mi NNE 3.5 mph - N/A   Clear
4:31 AM 10.4 °F 2.2 °F 1.4 °F 67% 30.02 in 10.0 mi NNE 4.6 mph - N/A   Clear
4:51 AM 10.4 °F - 1.4 °F 67% 30.02 in 10.0 mi Calm Calm - N/A   Clear
5:11 AM 10.4 °F - 1.4 °F 67% 30.01 in 10.0 mi Calm Calm - N/A   Clear
5:52 AM 10.4 °F - 3.2 °F 73% 30.00 in 10.0 mi Calm Calm - N/A   Clear
6:12 AM 14.0 °F - 5.0 °F 67% 30.00 in 10.0 mi Calm Calm - N/A   Clear
6:31 AM 14.0 °F - 5.0 °F 67% 30.00 in 10.0 mi Calm Calm - N/A   Clear
6:52 AM 19.4 °F - 5.0 °F 54% 30.00 in 10.0 mi Calm Calm - N/A   Clear
7:11 AM 19.4 °F - 6.8 °F 58% 30.00 in 10.0 mi Calm Calm - N/A   Clear
7:31 AM 19.4 °F - 6.8 °F 58% 30.00 in 10.0 mi Calm Calm - N/A   Clear
7:52 AM 19.4 °F - 6.8 °F 58% 29.99 in 10.0 mi Calm Calm - N/A   Clear
8:12 AM 17.6 °F - 5.0 °F 58% 29.99 in 10.0 mi Calm Calm - N/A   Clear
8:32 AM 15.8 °F - 3.2 °F 58% 29.99 in 10.0 mi Calm Calm - N/A   Clear
8:51 AM 17.6 °F - 5.0 °F 58% 29.99 in 10.0 mi Calm Calm - N/A   Clear
9:11 AM 17.6 °F - 5.0 °F 58% 29.99 in 10.0 mi Calm Calm - N/A   Clear
9:32 AM 19.4 °F - 6.8 °F 58% 29.99 in 10.0 mi Calm Calm - N/A   Clear
9:51 AM 21.2 °F - 6.8 °F 54% 29.98 in 10.0 mi Calm Calm - N/A   Clear
10:12 AM 23.0 °F - 8.6 °F 54% 29.98 in 10.0 mi Calm Calm - N/A   Clear
10:32 AM 26.6 °F - 8.6 °F 47% 29.97 in 10.0 mi Calm Calm - N/A   Scattered Clouds
10:51 AM 28.4 °F 22.2 °F 8.6 °F 43% 29.97 in 10.0 mi SE 5.8 mph - N/A   Mostly Cloudy
11:11 AM 28.4 °F 24.6 °F 8.6 °F 43% 29.97 in 10.0 mi SE 3.5 mph - N/A   Overcast
11:31 AM 30.2 °F - 8.6 °F 40% 29.96 in 10.0 mi Calm Calm - N/A   Mostly Cloudy
11:51 AM 30.2 °F - 10.4 °F 44% 29.95 in 10.0 mi Calm Calm - N/A   Overcast
12:12 PM 30.2 °F - 10.4 °F 44% 29.95 in 10.0 mi Calm Calm - N/A   Overcast
12:31 PM 32.0 °F 27.5 °F 10.4 °F 41% 29.93 in 10.0 mi SE 4.6 mph - N/A   Overcast
12:51 PM 32.0 °F 27.5 °F 10.4 °F 41% 29.93 in 10.0 mi SE 4.6 mph - N/A   Overcast
1:12 PM 32.0 °F 28.7 °F 10.4 °F 41% 29.92 in 10.0 mi SE 3.5 mph - N/A   Overcast
1:31 PM 32.0 °F 28.7 °F 10.4 °F 41% 29.91 in 10.0 mi SE 3.5 mph - N/A   Overcast
1:51 PM 32.0 °F 28.7 °F 10.4 °F 41% 29.90 in 10.0 mi ESE 3.5 mph - N/A   Overcast
2:11 PM 32.0 °F 27.5 °F 10.4 °F 41% 29.90 in 10.0 mi East 4.6 mph - N/A   Overcast
2:31 PM 32.0 °F - 10.4 °F 41% 29.89 in 10.0 mi Calm Calm - N/A   Overcast
2:51 PM 32.0 °F 28.7 °F 12.2 °F 44% 29.88 in 10.0 mi East 3.5 mph - N/A   Overcast
3:11 PM 32.0 °F 27.5 °F 14.0 °F 48% 29.87 in 10.0 mi East 4.6 mph - N/A   Overcast
3:31 PM 32.0 °F 27.5 °F 14.0 °F 48% 29.86 in 10.0 mi East 4.6 mph - N/A   Overcast
3:51 PM 32.0 °F 28.7 °F 14.0 °F 48% 29.86 in 10.0 mi East 3.5 mph - N/A   Overcast
4:12 PM 32.0 °F - 15.8 °F 51% 29.86 in 10.0 mi Calm Calm - N/A   Overcast
4:32 PM 32.0 °F 26.4 °F 15.8 °F 51% 29.86 in 10.0 mi ESE 5.8 mph - N/A   Overcast
4:51 PM 32.0 °F 27.5 °F 17.6 °F 55% 29.86 in 10.0 mi ESE 4.6 mph - N/A   Overcast
5:11 PM 32.0 °F 27.5 °F 14.0 °F 48% 29.86 in 10.0 mi East 4.6 mph - N/A   Overcast
5:51 PM 30.2 °F 25.4 °F 19.4 °F 64% 29.86 in 4.0 mi ENE 4.6 mph - N/A Snow Light Snow
6:12 PM 28.4 °F 22.2 °F 19.4 °F 69% 29.85 in 2.0 mi NE 5.8 mph - N/A Snow Light Snow
6:31 PM 28.4 °F 22.2 °F 19.4 °F 69% 29.85 in 3.0 mi NE 5.8 mph - N/A Snow Light Snow
6:51 PM 28.4 °F 23.3 °F 21.2 °F 74% 29.85 in 5.0 mi NE 4.6 mph - N/A Snow Light Snow
7:11 PM 28.4 °F 23.3 °F 21.2 °F 74% 29.84 in 5.0 mi NE 4.6 mph - N/A Snow Light Snow
7:31 PM 28.4 °F - 21.2 °F 74% 29.84 in 1.8 mi Calm Calm - N/A Snow Light Snow
7:52 PM 28.4 °F - 21.2 °F 74% 29.84 in 2.0 mi Calm Calm - N/A Snow Light Snow
8:12 PM 28.4 °F - 21.2 °F 74% 29.83 in 2.5 mi Calm Calm - N/A Snow Light Snow
8:31 PM 28.4 °F - 23.0 °F 80% 29.82 in 2.5 mi Calm Calm - N/A Snow Light Snow
8:51 PM 28.4 °F - 23.0 °F 80% 29.82 in 2.5 mi Calm Calm - N/A Snow Light Snow
9:11 PM 28.4 °F - 23.0 °F 80% 29.81 in 3.0 mi Calm Calm - 0.01 in Snow Light Snow
9:31 PM 28.4 °F - 23.0 °F 80% 29.81 in 2.0 mi Calm Calm - 0.01 in Snow Light Snow
9:51 PM 28.4 °F - 23.0 °F 80% 29.80 in 2.0 mi Calm Calm - 0.01 in Snow Light Snow
10:11 PM 28.4 °F - 23.0 °F 80% 29.80 in 3.0 mi Calm Calm - 0.01 in Snow Light Snow
10:31 PM 28.4 °F - 23.0 °F 80% 29.80 in 2.5 mi Calm Calm - 0.01 in Snow Light Snow
10:51 PM 28.4 °F - 23.0 °F 80% 29.80 in 2.5 mi Calm Calm - 0.01 in Snow Light Snow
11:11 PM 28.4 °F - 23.0 °F 80% 29.80 in 3.0 mi Calm Calm - N/A Snow Light Snow
11:31 PM 28.4 °F - 23.0 °F 80% 29.80 in 2.0 mi Calm Calm - N/A Snow Light Snow
11:51 PM 28.4 °F - 23.0 °F 80% 29.80 in 2.0 mi Calm Calm - 0.01 in Snow Light Snow